This demonstration page uses our WeatherBlox Daily Observations layout. Learn more.

Hourly Observations for August 20, 2016

Temp ( °F °C ) Dew Point ( °F °C ) Humidity (%) Winds ( mph kmh ) Pressure ( in mb ) Visibility ( mi km ) Precip ( " mm )
12:15 am 00:15 Mostly Cloudy 63 17.1 58 14.4 84 84 NNW 12 19 29.97 1015 10 16.09344 0 0
12:35 am 00:35 Cloudy 62 16.7 56 13.5 82 82 N 13 20 29.97 1015 10 16.09344 0 0
12:55 am 00:55 Cloudy 61 16.3 55 13 81 81 NNW 13 20 29.97 1015 10 16.09344 0 0
1:15 am 01:15 Cloudy 61 16 55 12.5 80 80 N 13 20 30 1016 10 16.09344 0 0
1:35 am 01:35 Mostly Cloudy 60 15.4 54 12.1 81 81 N 13 20 30 1016 10 16.09344 0 0
1:55 am 01:55 Mostly Cloudy 60 15.3 54 12.2 82 82 N 13 20 30.03 1017 10 16.09344 0 0
2:15 am 02:15 Cloudy 59 15.2 54 12.3 83 83 NNW 13 20 30 1016 10 16.09344 0 0
2:35 am 02:35 Cloudy 59 15.1 54 12 82 82 N 10 17 30.03 1017 10 16.09344 0 0
2:55 am 02:55 Cloudy 59 14.9 54 12 83 83 NNW 10 17 30.03 1017 10 16.09344 0 0
3:15 am 03:15 Cloudy 59 14.8 54 12 83 83 N 9 15 30.03 1017 10 16.09344 0 0
3:35 am 03:35 Cloudy 58 14.5 52 11.2 81 81 N 12 19 30.03 1017 10 16.09344 0 0
3:55 am 03:55 Mostly Cloudy 57 14.1 52 11.1 82 82 NNW 10 17 30.03 1017 10 16.09344 0 0
4:15 am 04:15 Partly Cloudy 57 14 52 11.2 83 83 NNW 9 15 30 1016 10 16.09344 0 0
4:35 am 04:35 Clear 56 13.5 52 11.3 87 87 NNW 7 11 30 1016 10 16.09344 0 0
4:55 am 04:55 Partly Cloudy 56 13.3 53 11.5 89 89 NNW 7 11 30 1016 10 16.09344 0 0
5:15 am 05:15 Partly Cloudy 56 13.5 52 11.3 87 87 NNW 13 20 30 1016 10 16.09344 0 0
5:35 am 05:35 Clear 55 13 52 11 88 88 NW 8 13 30 1016 10 16.09344 0 0
5:55 am 05:55 Clear 55 12.6 51 10.6 88 88 NNW 9 15 30.03 1017 10 16.09344 0 0
6:15 am 06:15 Clear 54 12.2 51 10.5 89 89 NNW 9 15 30.06 1018 10 16.09344 0 0
6:35 am 06:35 Clear 54 12 51 10.3 89 89 NNW 7 11 30.06 1018 10 16.09344 0 0
6:55 am 06:55 Sunny 53 11.5 50 10.1 91 91 NW 6 9 30.06 1018 10 16.09344 0 0
7:15 am 07:15 Sunny 53 11.5 50 10.2 92 92 NW 7 11 30.06 1018 10 16.09344 0 0
7:35 am 07:35 Sunny 53 11.6 51 10.3 92 92 NW 8 13 30.06 1018 10 16.09344 0 0
7:55 am 07:55 Sunny 54 12.2 51 10.7 91 91 NW 8 13 30.06 1018 10 16.09344 0 0
8:15 am 08:15 Sunny 55 13 52 11 88 88 NW 8 13 30.06 1018 10 16.09344 0 0
8:35 am 08:35 Sunny 57 13.7 52 11 84 84 NW 10 17 30.03 1017 10 16.09344 0 0
8:55 am 08:55 Sunny 58 14.2 51 10.6 79 79 NW 10 17 30.03 1017 10 16.09344 0 0
9:15 am 09:15 Sunny 58 14.7 51 10.6 77 77 NW 8 13 30.03 1017 10 16.09344 0 0
9:35 am 09:35 Sunny 59 15.2 50 10.2 72 72 NW 9 15 30.03 1017 10 16.09344 0 0
9:55 am 09:55 Sunny 60 15.6 50 9.9 69 69 N 14 22 30.03 1017 10 16.09344 0 0
10:15 am 10:15 Sunny 61 16 50 9.8 67 67 NNW 14 22 30.03 1017 10 16.09344 0 0
10:35 am 10:35 Sunny 62 16.9 49 9.6 62 62 NNW 10 17 30 1016 10 16.09344 0 0
10:55 am 10:55 Sunny 64 17.5 49 9.4 59 59 NW 13 20 30 1016 10 16.09344 0 0
11:15 am 11:15 Sunny 65 18.1 49 9.3 57 57 NNW 8 13 30 1016 10 16.09344 0 0
11:35 am 11:35 Sunny 65 18.5 47 8.1 51 51 N 10 17 29.97 1015 10 16.09344 0 0
11:55 am 11:55 Partly Cloudy 66 19 48 8.9 52 52 NNW 9 15 29.97 1015 10 16.09344 0 0
12:15 pm 12:15 Partly Cloudy 67 19.5 47 8.5 49 49 N 9 15 29.97 1015 10 16.09344 0 0
12:35 pm 12:35 Sunny 68 20.1 45 7.4 44 44 N 13 20 29.94 1014 10 16.09344 0 0
12:55 pm 12:55 Sunny 68 20.2 46 7.8 45 45 NNW 10 17 29.94 1014 10 16.09344 0 0
1:15 pm 13:15 Partly Cloudy 70 20.9 47 8.2 44 44 NNW 8 13 29.94 1014 10 16.09344 0 0
1:35 pm 13:35 Sunny 70 20.9 46 7.5 42 42 N 12 19 29.94 1014 10 16.09344 0 0
1:55 pm 13:55 Partly Cloudy 70 21.2 47 8.1 43 43 N 14 22 29.94 1014 10 16.09344 0 0
2:15 pm 14:15 Partly Cloudy 71 21.8 46 7.5 40 40 NNW 6 9 29.91 1013 10 16.09344 0 0
2:35 pm 14:35 Partly Cloudy 72 22 47 8.3 42 42 NNW 10 17 29.91 1013 10 16.09344 0 0
2:55 pm 14:55 Partly Cloudy 71 21.5 45 7.3 40 40 N 9 15 29.91 1013 10 16.09344 0 0
3:15 pm 15:15 Partly Cloudy 72 22.2 46 7.6 39 39 NNW 6 9 29.91 1013 10 16.09344 0 0
3:35 pm 15:35 Partly Cloudy 72 22.4 44 6.9 37 37 NW 5 7 29.91 1013 10 16.09344 0 0
3:55 pm 15:55 Partly Cloudy 70 21 44 6.4 39 39 N 6 9 29.91 1013 10 16.09344 0 0
4:15 pm 16:15 Partly Cloudy 73 23 44 6.6 35 35 NNW 6 9 29.91 1013 10 16.09344 0 0
4:35 pm 16:35 Partly Cloudy 73 23 44 6.5 35 35 NNW 8 13 29.91 1013 10 16.09344 0 0
4:55 pm 16:55 Partly Cloudy 71 21.5 44 6.7 38 38 NNW 5 7 29.91 1013 10 16.09344 0 0
5:15 pm 17:15 Partly Cloudy 71 21.5 46 7.9 42 42 NW 3 6 29.91 1013 10 16.09344 0 0
5:35 pm 17:35 Mostly Cloudy 72 22.2 44 6.5 36 36 N 3 6 29.91 1013 10 16.09344 0 0
5:55 pm 17:55 Mostly Cloudy 73 23 44 6.8 35 35 N 5 7 29.91 1013 10 16.09344 0 0
6:15 pm 18:15 Mostly Cloudy 73 23 44 6.5 35 35 WNW 7 11 29.91 1013 10 16.09344 0 0
6:35 pm 18:35 Mostly Cloudy 72 22.1 45 7 38 38 NW 3 6 29.91 1013 10 16.09344 0 0
6:55 pm 18:55 Cloudy 74 23.3 44 6.9 35 35 NW 3 6 29.88 1012 10 16.09344 0 0
7:15 pm 19:15 Mostly Cloudy 73 22.5 47 8.3 40 40 NW 5 7 29.91 1013 10 16.09344 0 0
7:35 pm 19:35 Partly Cloudy 72 22 47 8.4 42 42 NW 3 6 29.91 1013 10 16.09344 0 0
7:55 pm 19:55 Partly Cloudy 70 21 49 9.4 48 48 WNW 3 6 29.91 1013 10 16.09344 0 0
8:15 pm 20:15 Partly Cloudy 67 19.4 51 10.3 56 56 NNW 3 6 29.94 1014 10 16.09344 0 0
8:35 pm 20:35 Clear 65 18.1 52 11.3 65 65 N 3 6 29.94 1014 10 16.09344 0 0
8:55 pm 20:55 Clear 63 17 55 12.6 75 75 Calm 29.97 1015 10 16.09344 0 0
9:15 pm 21:15 Clear 61 16.2 54 12 76 76 Calm 30 1016 10 16.09344 0 0
9:35 pm 21:35 Clear 59 15.2 54 12.2 82 82 N 5 7 30 1016 10 16.09344 0 0
9:55 pm 21:55 Clear 59 15 52 11 77 77 NNE 6 9 30 1016 10 16.09344 0 0
10:15 pm 22:15 Clear 58 14.6 51 10.8 78 78 N 6 9 30 1016 10 16.09344 0 0
10:35 pm 22:35 Clear 58 14.5 51 10.5 77 77 N 6 9 30 1016 10 16.09344 0 0
10:55 pm 22:55 Clear 57 13.7 51 10.5 81 81 NNE 6 9 30 1016 10 16.09344 0 0
11:15 pm 23:15 Clear 56 13.3 51 10.7 84 84 NE 5 7 30.03 1017 10 16.09344 0 0
11:35 pm 23:35 Clear 56 13.3 51 10.4 83 83 NNE 3 6 30.03 1017 10 16.09344 0 0
11:55 pm 23:55 Clear 55 12.6 50 10 84 84 Calm 30.06 1018 10 16.09344 0 0

Powered by AerisWeather